Theta_e
308 298 297 297 299 301 302 302 301 301 301 300 299 298 296 296 297 300 301 295 298 295 295 296 296 296 297 299 300 302 303 302 301 301 301 302 302 303 303 303 304 303 302 304 303 302 301 300 299 298 298 298 297 297 297 297 297 296 296 296 295 296 295 295 294 294 294 293 293 294 293 293 293 293 294 294 294 294 294 294 294 294 293 293 293 292
302 297 297 300 301 302 303 304 303 302 301 298 297 296 295 298 295 300 300 294 296 293 294 297 296 296 297 298 300 301 300 299 300 300 301 302 303 303 304 304 304 304 305 303 302 301 300 298 298 297 296 296 295 295 295 296 296 296 296 296 295 295 294 294 294 294 294 294 294 294 293 293 294 293 292 292 293 293 294 293 293 293 293 293 292 292
297 295 299 302 303 303 301 301 301 299 298 299 296 296 295 296 300 301 297 293 294 293 292 295 294 295 297 298 300 300 299 300 302 302 302 302 303 303 304 305 305 304 301 301 300 300 298 298 296 295 294 295 296 295 295 296 296 296 295 295 295 294 294 294 294 294 294 295 296 295 294 294 293 294 294 294 294 293 293 293 293 293 293 292 292 292
294 297 301 303 303 301 299 297 298 297 298 296 296 294 293 298 297 294 295 293 293 293 293 294 292 293 296 298 298 300 300 301 303 303 303 304 303 303 304 305 305 304 301 300 299 298 297 297 295 294 293 294 294 294 293 294 294 294 295 295 295 294 294 294 294 295 295 296 295 295 294 294 294 292 292 292 292 292 292 292 292 292 292 292 291 291
296 300 298 300 302 300 298 297 296 295 294 297 297 296 296 297 298 297 296 294 296 296 293 293 292 293 296 296 297 300 301 301 301 302 302 303 305 305 307 307 307 304 302 301 299 298 296 295 294 293 293 293 292 293 292 293 293 294 294 295 295 294 294 294 294 295 295 294 293 292 292 292 291 290 290 291 290 291 292 291 292 292 292 292 291 291
297 301 300 298 298 298 299 296 296 298 294 296 299 298 298 299 297 299 299 294 293 293 294 294 288 290 296 298 298 300 298 297 299 298 299 300 302 303 303 304 306 306 304 303 300 298 297 296 295 294 292 291 292 292 292 293 293 293 294 294 294 294 294 294 294 294 294 292 291 290 289 288 288 288 289 288 289 290 290 290 292 292 292 291 290 290
299 299 299 299 300 298 298 296 299 299 294 293 296 300 300 298 297 297 295 294 289 288 293 294 287 285 294 294 297 299 297 297 299 298 298 300 303 304 306 307 305 303 302 303 302 299 296 296 294 293 291 291 291 292 293 293 293 293 294 294 294 294 293 294 294 294 293 292 291 290 290 290 290 289 291 292 292 292 292 292 291 290 291 291 290 290
300 296 296 298 298 297 296 294 298 298 295 293 294 295 296 296 295 295 295 293 291 295 296 294 293 286 287 293 297 298 296 297 298 299 301 302 302 302 303 307 305 303 302 302 301 299 297 296 294 293 292 291 291 292 292 292 292 292 293 293 294 293 293 294 293 293 292 291 291 291 291 291 291 291 291 291 290 291 290 290 289 289 290 290 290 289
299 297 295 295 295 295 294 297 302 301 296 295 293 296 295 295 295 294 293 291 292 290 286 291 294 287 287 293 297 297 293 294 295 297 298 300 302 303 305 306 306 304 303 303 301 299 297 296 295 294 292 291 291 291 291 291 291 292 292 293 293 292 293 293 293 292 292 292 291 291 291 290 291 291 291 291 290 289 289 288 289 289 288 289 289 289
297 297 299 299 296 294 298 291 295 300 295 293 294 295 295 295 294 294 291 291 290 287 284 289 292 286 287 294 293 295 294 294 295 297 298 300 302 304 306 307 305 304 304 303 302 300 299 297 296 295 293 291 291 291 292 291 291 291 292 292 292 291 292 292 291 292 291 291 291 290 290 290 289 290 290 290 289 289 289 288 288 288 288 288 288 288
295 294 296 297 297 298 292 291 292 293 294 295 297 295 294 293 293 291 292 290 288 284 286 291 292 290 284 292 292 291 293 296 297 298 300 302 304 304 307 308 305 303 302 300 301 301 299 298 295 293 291 290 290 291 291 291 291 291 291 291 290 291 291 291 291 290 290 290 290 290 290 290 290 290 289 288 288 288 288 287 287 287 288 288 287 287
295 294 295 296 298 294 296 292 292 292 294 296 293 292 293 291 291 289 288 289 284 283 289 292 292 292 283 288 293 296 299 299 299 298 299 300 302 304 309 305 303 302 301 300 298 298 297 295 294 292 291 290 289 289 289 290 290 290 290 290 290 290 290 290 290 289 289 289 289 289 289 289 290 290 288 287 287 287 287 287 286 287 287 286 287 287
293 294 297 297 296 296 293 295 290 292 292 294 293 292 287 286 287 284 285 281 283 283 288 292 294 289 287 291 296 297 298 299 300 300 300 300 301 303 309 304 302 301 299 297 296 296 295 293 292 291 290 289 288 288 288 289 290 290 290 289 289 288 289 289 289 288 288 288 288 288 288 289 289 289 288 287 287 287 286 286 286 285 285 285 285 285
294 297 296 297 294 296 298 291 291 288 289 290 290 289 287 283 283 280 284 287 286 289 290 288 292 286 291 293 297 297 299 300 300 301 302 301 301 302 307 303 299 297 297 296 295 295 294 293 292 291 290 289 289 288 288 288 289 289 289 289 288 288 288 288 288 287 287 287 287 287 287 288 288 287 287 287 286 286 286 286 285 285 284 284 284 285
288 289 292 295 292 298 296 296 297 296 290 290 295 292 289 288 284 280 283 281 283 286 287 289 285 284 284 290 298 299 300 301 301 301 302 303 303 305 300 298 297 295 294 295 294 294 293 293 292 291 290 290 289 288 288 288 288 289 288 288 288 288 288 287 287 287 286 286 286 286 287 287 287 286 286 286 286 285 285 285 284 284 284 283 284 284
290 290 298 299 298 297 294 299 301 296 293 293 294 296 290 288 293 285 287 287 285 284 284 284 283 290 290 298 298 300 300 300 301 301 301 301 302 303 298 297 295 294 293 293 293 293 293 293 292 291 290 290 289 288 288 287 288 288 288 288 288 288 287 286 286 286 286 286 286 286 285 285 285 285 285 285 285 285 285 284 283 283 283 283 283 283
289 288 296 295 295 295 294 296 298 300 287 291 292 287 291 297 294 289 288 287 284 284 282 288 287 291 295 296 297 297 298 298 299 299 300 300 302 301 301 299 298 295 294 293 293 293 292 292 291 291 290 289 288 288 287 287 288 288 288 287 287 288 287 286 286 286 286 286 285 285 285 285 284 284 283 283 283 283 283 283 283 282 282 282 282 282
288 291 291 294 290 291 289 293 295 294 297 292 286 291 295 298 295 289 283 286 284 281 283 289 286 287 288 285 296 295 294 296 297 297 298 299 300 299 301 300 299 298 296 295 293 293 293 292 291 290 290 289 288 287 287 287 288 288 288 288 287 287 286 286 286 285 285 285 284 284 284 284 283 283 283 282 282 282 281 281 281 281 281 281 281 281
296 286 293 291 291 291 291 294 293 295 295 292 291 296 289 284 283 288 286 278 279 279 281 285 287 288 290 290 293 292 293 294 296 298 297 297 298 299 299 299 299 299 298 295 294 293 292 292 291 290 289 289 288 288 288 288 288 288 288 288 288 287 286 286 286 286 285 285 285 284 283 283 282 282 282 282 282 281 280 280 280 280 280 281 280 280
293 287 289 287 290 290 290 291 286 289 293 292 293 291 293 289 287 286 286 286 285 280 281 281 286 284 292 293 295 294 295 295 296 297 297 298 299 299 298 298 299 298 298 297 295 294 293 292 291 290 289 288 288 287 287 287 287 287 287 287 287 287 286 286 285 285 284 284 284 283 283 282 282 282 281 281 280 279 279 279 279 279 279 279 279 279
290 291 284 286 287 291 286 289 288 291 287 286 287 286 289 287 290 289 289 287 284 282 282 281 280 285 293 296 296 296 296 297 297 297 299 299 300 300 300 299 299 299 299 298 297 295 293 292 291 290 290 289 289 288 288 287 287 287 287 287 287 286 285 285 285 285 284 284 283 282 281 281 281 280 280 279 279 279 279 279 279 279 279 279 278 278
289 287 285 285 283 285 289 294 293 295 294 291 289 287 289 286 284 282 280 290 286 284 281 281 280 287 294 297 297 296 297 298 299 299 299 301 300 299 300 300 300 299 298 298 297 295 294 292 291 290 290 289 288 287 287 287 287 286 286 286 287 286 285 284 284 284 283 283 282 281 281 280 280 280 279 279 279 278 278 278 278 278 278 277 277 277
295 290 288 285 286 288 292 296 296 297 296 296 293 290 293 291 289 286 280 284 285 286 287 286 283 285 296 298 297 297 298 298 298 299 298 300 300 299 300 300 300 300 299 298 296 294 293 291 290 289 288 288 287 287 286 286 286 286 286 286 286 285 285 285 284 284 283 281 281 281 280 280 279 279 278 278 278 278 278 278 278 278 277 277 277 277
293 288 285 286 290 291 291 288 293 291 293 291 292 294 293 289 290 288 287 288 285 286 283 283 280 284 295 299 298 298 299 299 299 298 298 298 298 298 298 299 299 298 298 297 296 294 292 290 290 289 288 287 286 286 286 286 286 286 286 285 286 285 285 284 283 283 281 281 280 280 279 279 279 278 278 277 278 277 277 277 277 277 276 276 276 275
288 287 286 283 283 284 288 290 287 289 291 288 289 291 293 294 293 292 290 287 283 284 285 283 278 285 294 298 298 298 297 297 297 297 297 297 298 298 297 298 298 297 296 294 294 292 290 289 288 288 287 287 286 286 286 286 285 285 285 285 285 285 285 283 283 281 281 280 280 279 279 278 278 277 277 277 277 277 277 277 276 276 276 275 275 275
289 287 286 280 277 276 277 278 281 283 283 288 290 291 292 291 291 288 284 285 281 284 286 283 283 288 294 296 296 296 297 297 298 298 297 297 297 297 297 297 296 295 294 294 294 291 289 289 288 288 287 287 286 286 286 286 285 285 285 285 285 285 284 282 282 281 280 280 279 278 278 278 277 277 277 277 277 277 277 276 276 275 275 275 274 274
287 288 289 286 283 282 284 287 293 290 287 284 286 288 289 292 292 290 288 285 282 285 284 286 287 287 290 292 294 295 296 295 296 297 296 295 295 297 298 297 297 296 295 294 294 292 290 289 288 288 287 287 286 286 286 285 285 285 285 284 285 284 283 282 281 280 280 279 279 278 278 277 277 277 277 277 277 276 276 275 275 275 274 274 273 272
285 284 287 288 287 288 290 290 292 293 288 287 287 286 289 289 288 286 285 283 288 285 280 287 289 287 288 292 293 294 295 296 297 297 297 297 296 295 295 295 295 295 295 295 294 292 290 289 289 288 287 287 286 286 285 285 285 284 284 284 284 283 282 281 280 280 279 279 278 278 277 277 277 277 277 277 276 276 275 275 274 273 273 272 271 271
285 284 287 287 287 290 291 290 291 291 291 291 289 289 287 288 287 284 285 288 289 284 282 287 289 287 289 292 294 295 296 296 296 297 298 298 297 297 296 294 294 294 295 295 294 292 291 290 289 288 287 287 286 285 285 285 285 284 284 284 283 282 281 281 280 279 279 278 278 277 278 277 277 277 276 276 275 274 274 273 272 272 271 270 270 270
286 284 287 287 286 287 288 289 290 289 288 289 288 288 289 288 288 288 287 289 289 287 288 289 289 289 291 293 294 295 297 297 297 298 297 296 296 296 296 295 295 296 296 295 295 294 293 292 291 289 288 287 286 285 285 284 284 284 283 283 282 281 281 280 279 278 278 278 278 277 277 277 276 275 275 274 273 273 272 272 271 270 269 269 269 268
287 283 289 287 284 284 286 288 289 288 288 286 287 288 287 287 288 289 289 290 289 289 290 289 288 287 293 295 295 296 297 297 296 295 295 296 296 296 296 296 296 296 297 297 297 296 295 294 293 292 290 287 286 286 285 284 284 284 283 283 282 281 280 280 278 278 278 277 277 277 276 275 275 274 273 273 273 272 271 270 269 268 268 268 267 267
287 284 288 285 282 281 286 286 287 288 288 286 285 286 286 286 285 287 286 289 287 285 287 287 285 286 292 295 295 295 295 295 294 295 295 296 296 296 295 295 296 296 296 297 297 297 296 295 294 293 291 289 287 286 285 284 284 283 282 282 281 280 279 279 278 277 277 277 277 276 275 274 274 273 272 272 271 270 269 268 267 267 266 266 266 266
286 285 283 283 280 279 285 286 285 285 283 280 281 285 286 287 288 289 290 290 290 291 286 284 285 291 293 295 294 294 294 294 294 294 295 295 296 296 296 296 296 296 297 297 297 297 297 296 294 293 292 291 288 286 285 284 283 282 282 281 280 279 278 278 277 277 277 276 275 275 274 274 272 272 271 270 269 268 267 266 266 265 265 265 266 266
286 285 283 285 279 279 284 284 285 281 274 276 287 291 290 287 287 285 286 289 291 291 289 292 292 294 295 294 293 293 293 294 295 296 296 296 296 296 297 297 297 298 298 298 298 298 298 298 296 294 293 292 289 287 286 285 283 283 282 281 279 278 277 277 277 277 276 275 274 274 273 272 271 270 270 269 268 267 266 265 265 265 266 266 266 266
285 285 283 285 281 279 283 283 279 273 275 286 291 293 292 291 290 289 289 291 291 292 292 292 292 293 294 295 295 295 296 296 297 296 296 297 298 297 296 296 297 297 297 298 298 298 297 297 297 294 291 290 288 286 285 284 283 282 281 279 278 277 277 276 276 276 275 274 273 272 272 271 270 269 268 267 266 266 265 265 265 265 266 266 266 266
285 285 284 283 283 283 280 279 274 273 285 288 291 292 294 293 292 290 288 290 291 292 292 291 292 294 295 295 296 296 296 297 297 297 297 298 298 297 296 296 297 297 297 298 297 298 298 297 296 293 291 289 287 285 284 283 282 281 279 278 277 276 276 276 275 274 274 273 271 271 271 270 269 268 267 266 265 265 265 265 265 265 266 266 266 267
288 286 286 281 285 277 279 279 278 286 283 285 287 289 290 287 288 287 282 287 292 293 293 292 293 294 295 295 296 296 296 296 294 295 298 298 298 298 297 297 298 298 298 298 298 298 298 297 294 292 290 287 286 284 283 282 281 279 277 277 276 276 275 275 274 273 272 271 271 270 270 269 268 267 266 265 264 264 264 265 265 265 266 265 266 266
290 285 285 283 280 285 278 277 278 277 275 282 289 293 296 294 294 294 290 286 295 295 295 294 293 294 294 294 295 295 296 292 289 291 296 298 298 298 298 298 298 298 298 298 298 298 295 293 291 290 288 286 284 284 283 281 280 278 277 276 275 275 274 274 273 273 272 271 270 270 269 269 267 266 265 264 264 264 265 265 265 265 266 265 265 265
290 289 287 284 281 284 280 277 276 276 279 287 289 294 295 296 296 294 288 283 293 295 296 295 294 294 294 294 294 295 292 288 289 292 296 298 297 297 297 297 298 298 298 298 298 297 295 291 290 288 287 285 283 283 281 280 279 277 276 275 274 274 273 273 273 272 271 270 269 268 268 267 267 266 265 264 264 264 264 264 264 265 265 265 265 265
285 285 285 281 279 281 280 278 277 282 281 288 292 293 296 297 297 291 279 280 293 294 296 296 294 294 294 295 295 293 291 288 289 293 298 298 298 298 296 297 297 297 297 297 296 295 292 289 287 285 286 284 284 282 280 279 278 276 275 274 273 273 272 273 272 271 270 268 267 267 266 266 266 265 264 264 264 264 264 264 264 264 264 264 265 265
282 283 284 279 280 281 281 279 282 283 290 293 293 295 296 296 293 282 277 286 295 295 296 296 295 295 295 294 294 292 293 295 296 297 298 298 297 297 296 295 296 295 296 296 294 290 288 287 287 286 286 285 283 281 280 278 277 276 274 273 272 272 272 272 270 269 268 267 265 265 265 265 265 264 264 264 263 263 263 264 264 264 264 263 264 264
282 283 282 284 280 279 280 279 278 283 289 294 295 296 296 291 281 280 290 297 296 295 297 296 295 295 295 295 295 295 295 297 296 296 296 296 296 297 297 296 292 291 289 289 289 288 287 286 285 285 284 283 281 279 278 277 276 275 274 273 272 273 272 270 269 268 266 265 264 264 263 263 263 263 263 263 263 262 262 264 264 263 263 263 264 262
283 283 278 281 282 283 281 278 278 274 287 296 294 293 295 287 287 295 296 296 296 296 296 296 296 296 296 295 296 296 296 296 296 296 296 296 296 296 296 297 294 291 290 288 286 287 286 285 284 284 283 280 279 278 278 277 275 274 273 272 272 272 270 269 267 266 265 264 263 263 262 262 261 261 261 262 262 262 262 263 261 261 262 262 262 262
289 285 283 284 285 280 279 277 277 285 290 295 294 288 292 294 297 297 296 295 297 297 296 296 296 296 296 296 295 296 296 295 296 296 296 296 296 296 297 297 295 292 290 289 288 287 285 285 284 283 280 278 278 277 277 276 274 273 272 272 271 270 268 267 266 265 264 262 262 261 261 261 261 261 261 261 262 262 262 262 261 261 262 262 262 263
291 285 287 283 288 285 282 286 290 294 294 296 296 296 297 299 299 299 297 296 296 297 297 297 296 297 297 297 296 296 296 296 296 296 296 296 296 296 296 296 294 291 289 287 286 285 284 284 283 280 277 276 276 276 276 276 274 272 271 271 269 268 266 265 264 263 262 261 261 260 260 260 260 261 260 261 261 261 261 261 261 261 263 262 263 264
287 288 288 286 284 289 289 292 293 294 294 293 295 296 295 295 295 294 293 293 294 295 294 293 293 293 294 293 292 292 293 294 294 295 295 296 296 296 296 293 290 288 287 285 284 283 282 282 280 278 275 275 275 275 275 276 275 271 272 269 267 267 266 264 263 262 261 261 260 260 260 260 260 260 260 261 261 262 262 261 261 262 263 263 264 264
286 288 284 280 283 281 278 290 286 288 290 290 291 293 294 294 292 292 292 292 292 293 294 294 294 294 294 293 292 292 292 293 293 293 294 294 294 294 294 293 291 288 286 284 283 281 279 278 277 275 274 273 273 274 274 275 274 273 269 267 267 266 264 263 263 262 261 260 260 260 260 260 260 260 260 260 261 262 263 263 263 263 263 264 264 264
280 289 281 281 281 278 279 283 284 286 287 288 291 292 292 292 293 293 294 294 294 294 295 295 294 294 294 293 294 293 293 293 293 293 293 293 293 293 293 293 292 289 285 284 282 279 279 278 277 275 273 272 272 273 273 274 273 270 267 267 266 264 263 263 262 261 260 260 259 259 260 260 260 259 259 260 261 261 262 262 263 263 264 264 264 263
281 283 275 278 277 278 282 283 285 286 287 288 292 292 292 291 292 292 292 292 292 292 293 294 295 294 294 294 294 293 292 292 292 293 293 293 293 293 293 293 292 288 285 281 280 278 278 278 277 275 273 272 272 272 273 273 271 267 266 265 263 263 263 263 262 261 260 259 259 259 260 261 260 261 260 260 261 262 263 262 262 264 264 264 265 265
279 275 279 278 274 275 276 279 283 278 280 287 289 290 290 289 289 288 289 288 289 289 291 292 292 294 294 294 294 293 291 292 293 293 292 293 293 293 293 292 291 288 285 283 281 279 278 278 277 275 273 272 271 271 271 271 267 266 266 264 263 263 262 262 261 260 259 259 259 260 260 260 260 261 260 260 260 260 260 263 265 265 263 263 267 269
278 279 279 276 276 275 281 284 286 286 284 284 285 285 285 286 286 285 285 285 286 286 287 287 287 288 289 290 292 291 291 292 293 294 293 293 293 293 293 292 291 289 286 283 279 277 277 277 276 275 272 271 270 270 270 269 265 265 264 263 263 263 263 261 260 260 260 260 259 260 259 260 259 260 261 261 261 261 260 261 263 267 268 268 268 268
Wind_Speed
2 7 8 10 13 13 14 15 17 17 13 11 8 9 14 15 17 16 14 6 5 6 14 17 19 20 21 20 18 18 17 18 19 20 19 20 17 14 14 16 16 14 12 10 12 14 15 15 13 13 12 13 14 14 16 16 16 15 14 14 14 12 12 10 10 9 9 9 8 7 8 7 7 6 6 5 5 5 4 5 4 4 3 3 2 1
3 9 14 18 17 16 11 8 11 14 11 11 13 13 13 12 16 13 9 7 5 5 10 12 16 18 19 18 18 18 18 21 21 22 22 23 20 16 17 16 14 11 5 10 10 11 13 12 13 12 11 13 17 14 16 16 16 15 15 15 13 12 12 11 11 10 9 9 8 8 8 7 7 7 6 6 6 5 4 4 5 4 3 3 2 2
8 12 18 17 10 1 1 6 8 11 13 10 9 10 10 13 13 16 2 6 4 4 12 11 15 17 18 18 19 20 21 18 19 21 21 20 18 15 15 14 11 8 9 11 11 12 12 13 14 12 11 11 15 15 16 15 15 15 14 13 13 12 12 11 11 10 9 8 7 7 7 7 6 4 4 4 5 4 4 5 5 4 4 3 3 3
10 13 21 16 4 8 5 4 7 9 9 9 8 8 12 10 6 10 4 1 6 5 9 12 15 18 20 20 24 24 21 19 17 20 19 16 16 17 17 10 8 10 10 12 12 13 13 13 13 11 10 11 12 12 12 14 15 12 13 14 13 12 12 11 10 9 9 7 7 5 6 4 4 5 4 3 3 4 4 5 5 4 4 4 3 3
15 7 5 4 4 6 11 6 7 8 9 9 12 12 12 10 13 10 6 3 7 12 3 10 14 15 14 15 13 16 18 13 15 13 15 15 15 15 12 10 9 10 11 10 12 13 14 15 15 15 12 11 12 12 13 14 14 10 14 14 14 12 12 10 10 10 9 9 8 6 6 4 3 2 4 4 5 5 5 4 5 4 5 4 3 3
18 11 4 3 4 6 7 8 10 9 9 10 13 16 16 15 15 14 5 10 8 11 4 6 13 13 8 9 10 4 4 7 9 8 13 15 14 10 12 13 9 8 9 10 13 15 15 14 13 13 13 13 13 13 13 12 13 11 13 14 14 11 11 11 12 11 9 8 8 8 7 7 6 6 6 7 7 6 6 5 4 4 3 3 2 3
10 4 3 9 7 6 8 11 10 9 11 9 6 4 14 15 14 11 12 6 7 7 3 6 6 18 7 6 7 5 7 9 5 8 12 12 10 9 10 7 8 11 10 9 9 12 14 14 14 14 14 15 15 13 11 11 12 12 13 13 13 12 11 10 12 12 9 9 8 10 9 7 8 7 6 5 4 4 4 3 3 2 2 3 3 3
7 4 4 4 8 8 7 11 12 13 8 9 4 3 1 4 7 9 7 7 11 10 8 6 6 17 15 7 6 9 10 7 9 11 12 10 10 12 15 5 9 10 11 10 12 13 14 14 16 17 16 14 15 13 12 12 12 14 15 14 14 10 11 10 11 12 10 10 9 9 8 7 7 6 6 6 5 4 3 3 3 2 2 3 4 4
7 6 8 9 8 7 12 9 2 12 9 1 2 3 3 1 2 1 4 7 8 9 9 6 8 10 12 3 16 14 12 12 13 14 15 15 14 12 12 11 8 10 11 11 11 13 14 15 15 14 14 14 14 13 13 13 13 12 14 13 12 11 11 10 13 12 11 9 9 9 8 7 5 5 4 4 4 4 4 3 3 3 3 3 4 5
2 2 4 9 7 10 3 5 4 6 11 3 3 7 6 4 3 3 3 6 8 7 14 7 11 7 22 4 7 7 10 11 12 14 14 15 14 10 9 6 6 7 8 9 11 12 12 13 13 12 12 14 13 12 11 12 12 13 13 13 14 12 10 10 12 12 12 11 9 9 9 9 7 6 5 5 5 5 4 4 4 4 4 4 5 5
2 2 3 2 10 3 6 6 5 7 5 7 3 2 2 2 3 2 4 4 5 12 15 12 17 12 18 1 9 9 9 11 11 9 10 10 7 9 7 7 7 7 8 7 9 10 11 10 11 12 13 14 13 11 13 12 13 13 13 14 15 14 11 12 12 13 12 11 10 9 9 10 9 9 7 6 6 5 5 5 5 5 4 4 4 4
6 5 2 4 3 5 5 5 6 2 1 3 2 3 2 5 2 4 3 2 5 15 6 16 18 19 13 4 6 10 10 14 11 6 9 10 9 7 4 6 7 8 8 9 8 9 10 10 10 11 13 14 14 12 13 12 13 14 13 14 16 15 14 13 13 13 12 11 10 9 10 10 9 9 7 7 7 7 6 5 5 4 4 4 4 4
8 11 9 4 3 8 5 3 3 3 3 4 5 4 4 4 1 5 4 5 9 12 4 5 13 11 23 19 8 3 6 11 8 8 9 10 9 7 2 6 6 5 6 8 8 8 9 10 12 13 13 14 15 15 16 15 14 13 13 16 17 17 16 14 15 15 14 12 11 10 10 10 9 8 8 7 7 6 6 5 5 5 4 4 4 4
4 4 10 9 3 9 9 9 5 3 10 9 10 8 4 7 7 9 8 8 11 6 3 5 0 13 11 12 15 21 15 12 10 8 10 11 10 9 5 5 5 5 5 6 8 9 10 10 11 12 13 14 13 14 15 16 14 14 14 16 18 18 16 15 15 16 15 14 12 12 10 10 8 9 8 7 6 6 5 5 5 5 5 4 4 3
7 7 10 13 7 13 16 17 12 4 12 13 8 8 9 7 3 7 7 10 10 7 2 4 1 5 0 4 12 20 20 17 11 10 9 10 11 8 4 4 4 6 6 5 7 8 10 11 12 12 13 13 13 15 16 14 15 14 14 16 19 18 17 16 16 14 15 13 13 12 11 10 8 8 7 7 6 6 6 5 5 5 4 4 4 4
12 14 4 10 4 15 14 13 4 6 2 8 7 6 6 11 8 13 7 6 6 8 10 6 7 5 10 3 6 1 7 13 11 12 13 10 11 8 6 7 7 6 7 7 7 8 9 10 11 10 12 12 12 15 14 16 15 15 16 17 19 19 17 16 16 15 15 14 12 13 12 11 10 8 7 7 6 6 6 6 5 5 5 4 4 3
3 9 7 5 0 8 5 3 7 4 7 7 8 9 9 4 6 8 10 3 2 4 16 4 9 12 10 20 13 9 10 12 11 13 10 12 11 10 9 10 9 8 8 8 8 8 9 10 10 10 12 11 12 13 16 17 17 17 16 17 18 18 15 16 16 15 14 14 13 13 13 12 11 11 10 9 9 8 7 6 5 5 5 4 4 4
8 4 3 6 6 1 1 4 2 3 2 9 5 6 5 2 4 3 7 4 7 10 15 8 16 17 11 14 12 14 14 14 14 15 14 13 10 11 10 9 10 10 10 7 7 7 8 9 11 11 11 13 14 15 15 16 15 14 14 16 18 17 17 16 17 16 15 15 14 14 14 13 12 11 10 9 9 8 7 6 6 5 5 5 4 4
2 6 3 1 5 4 0 2 3 2 4 3 1 6 5 5 5 9 4 8 8 11 10 16 21 16 18 15 4 13 15 15 17 15 11 11 11 10 11 11 9 6 7 9 10 10 10 11 12 13 13 12 11 12 13 13 13 13 13 15 17 17 16 16 14 14 12 13 10 11 13 14 12 11 10 9 9 8 8 8 7 7 6 5 5 5
1 8 4 2 2 4 2 5 7 9 6 2 3 4 2 2 4 7 9 4 6 13 10 18 19 18 13 7 9 12 16 17 17 13 11 12 13 12 11 11 10 8 9 10 11 12 10 10 11 12 12 13 14 13 13 14 12 14 14 15 16 13 14 15 16 15 14 13 11 11 12 12 11 11 11 10 9 8 8 8 7 7 6 6 5 5
6 6 11 4 5 3 5 9 10 12 11 6 5 8 5 3 2 5 4 9 9 8 11 10 15 19 3 2 8 7 14 12 11 11 10 10 11 10 10 11 10 11 9 9 10 11 11 10 10 11 11 10 10 10 11 13 14 14 13 15 17 17 17 17 16 15 14 12 12 14 14 14 13 12 11 10 10 9 8 7 7 6 5 5 6 5
3 4 14 4 2 9 10 9 16 17 16 14 15 14 15 10 7 7 12 5 3 6 7 9 15 18 10 7 5 6 2 3 4 6 6 7 9 7 8 9 9 9 10 9 9 8 8 6 6 8 8 8 10 12 13 13 12 14 15 15 16 15 15 16 16 15 14 12 12 15 14 14 12 12 10 11 10 9 8 8 7 6 6 6 6 6
10 5 9 12 14 14 9 4 2 4 2 5 10 10 13 12 11 10 12 5 1 7 7 12 13 22 10 8 6 3 1 3 6 5 9 7 6 7 9 8 8 10 9 8 7 7 8 8 10 10 11 13 14 12 13 13 13 14 15 16 16 16 16 16 15 13 12 12 13 15 13 13 12 12 12 12 10 10 9 8 7 7 7 6 6 6
7 1 4 12 6 6 3 2 1 2 2 4 7 7 8 14 13 12 9 2 4 4 7 9 15 15 14 8 6 8 9 8 10 10 14 13 7 9 11 8 9 8 7 7 4 3 5 6 5 7 10 12 12 13 15 13 12 13 14 15 15 17 17 16 14 14 13 13 13 14 14 13 12 13 12 11 9 10 9 8 8 7 7 7 5 6
2 3 8 7 6 4 13 4 3 2 5 10 11 10 12 10 10 6 3 2 5 14 19 12 15 10 15 11 3 11 12 9 10 12 14 15 12 10 9 9 8 8 7 7 8 8 6 7 10 10 10 11 11 11 12 13 14 14 15 15 16 16 16 14 13 14 14 14 15 14 14 13 12 13 12 11 9 11 10 9 8 7 7 6 6 6
9 4 8 11 12 14 12 15 17 5 9 8 9 12 14 17 13 7 11 7 13 19 24 15 16 22 25 21 24 24 16 7 10 13 10 10 14 11 9 9 8 8 10 10 8 8 12 10 7 9 11 10 11 12 12 12 13 14 14 16 14 15 15 14 13 14 14 14 15 14 14 13 12 13 12 11 10 10 9 8 8 7 6 6 6 5
2 5 12 13 15 15 18 20 3 8 6 8 11 12 10 14 19 16 8 10 18 16 12 16 23 21 20 25 26 27 23 23 27 28 16 9 7 7 8 8 9 10 12 13 13 11 6 6 11 12 10 10 11 11 11 12 13 14 14 15 15 14 13 13 13 14 14 14 14 13 14 13 12 11 11 11 9 9 8 8 7 7 6 5 5 5
1 7 17 24 28 25 22 24 24 17 9 13 10 14 15 15 12 15 14 21 18 7 18 15 24 21 17 20 25 30 28 25 25 25 24 15 7 10 11 11 11 11 10 8 8 8 12 11 9 10 13 13 12 12 11 11 12 13 14 16 15 14 13 11 14 14 14 14 13 12 13 12 11 11 11 10 9 9 8 8 7 6 5 5 5 5
7 14 15 17 20 21 20 21 20 22 22 14 14 12 16 17 15 19 26 28 12 14 19 20 24 22 20 19 22 27 27 28 30 30 26 21 16 10 4 8 11 13 12 12 13 13 12 11 12 12 13 13 12 13 13 12 12 12 12 13 14 13 13 13 14 14 14 13 13 13 12 12 11 10 10 10 10 9 8 8 7 6 5 5 4 4
1 11 11 15 17 16 16 18 21 27 23 22 17 13 10 13 21 27 29 11 16 24 27 24 24 28 22 21 28 30 30 30 29 27 26 25 19 11 6 9 14 17 16 15 16 16 17 18 18 15 13 11 14 15 14 13 13 14 15 15 14 13 13 13 13 14 13 13 12 12 12 12 10 10 10 10 9 9 9 8 7 6 5 5 5 4
7 11 12 13 14 18 20 22 22 22 18 14 13 14 12 16 22 24 16 9 17 23 22 28 29 26 16 24 28 30 31 28 25 29 29 21 19 22 19 17 21 24 21 18 15 15 17 18 18 17 16 13 13 15 14 13 13 12 13 13 14 14 13 14 13 13 13 13 12 12 12 11 10 10 10 10 9 8 8 8 6 6 6 5 5 5
6 9 8 4 11 15 15 22 24 15 14 17 17 16 20 26 26 22 20 18 19 20 24 21 17 17 21 29 30 29 27 25 29 31 26 20 23 25 17 16 17 19 21 18 15 14 14 16 17 18 18 18 16 12 11 11 13 14 15 14 14 13 13 13 12 13 12 12 12 12 12 11 10 9 9 9 8 8 8 7 6 6 5 5 5 5
6 5 8 9 13 17 16 18 18 16 13 15 17 27 35 32 25 24 26 27 25 21 19 15 15 20 24 22 20 22 26 28 29 25 18 17 23 19 16 16 15 19 19 16 15 14 14 13 15 17 19 17 16 14 12 12 12 14 15 14 14 12 13 12 12 12 12 11 11 12 11 10 10 9 9 9 9 8 7 7 6 6 6 6 5 5
5 11 12 9 12 13 16 20 13 10 14 15 24 31 25 26 27 28 26 30 32 25 19 20 20 15 18 19 23 25 29 30 28 15 11 16 19 17 14 15 19 20 19 18 16 15 14 12 10 13 17 18 17 16 9 12 10 9 10 10 10 11 11 12 11 10 11 9 10 11 11 9 9 9 9 9 8 8 7 7 6 6 5 4 5 6
13 13 14 7 11 9 12 12 11 18 19 21 17 4 12 21 27 29 30 29 29 28 28 27 27 28 27 27 25 27 29 30 24 16 17 22 19 14 14 18 21 21 20 19 18 16 14 13 11 10 11 12 12 9 10 10 10 11 10 10 11 10 10 8 9 8 10 9 9 9 9 10 9 9 9 9 8 8 7 7 6 6 5 5 5 6
14 14 10 9 10 7 6 10 13 18 4 5 5 13 17 19 19 19 23 28 32 32 30 28 28 28 27 29 28 28 28 28 17 11 19 22 20 15 14 16 20 21 20 18 16 15 15 11 8 9 11 8 10 9 10 11 11 10 9 10 11 8 7 7 7 8 8 8 8 8 9 10 10 9 9 9 8 8 7 6 6 6 5 5 5 5
20 15 11 11 11 13 9 15 22 3 3 6 5 12 16 15 15 19 21 25 29 28 27 24 25 28 28 28 29 28 28 22 12 15 20 23 20 17 17 18 21 20 19 19 16 15 12 6 5 7 7 10 11 10 11 10 10 11 10 9 8 9 9 9 10 8 8 8 8 9 10 10 10 10 10 9 9 8 7 7 6 5 4 4 5 5
19 18 12 18 11 14 12 11 8 10 15 11 16 15 17 21 24 27 22 24 11 14 17 21 25 26 29 29 27 27 23 12 11 15 21 26 20 15 18 17 18 17 18 19 15 10 4 3 3 6 11 12 12 12 10 13 16 17 14 13 11 15 11 10 11 11 10 10 10 10 10 10 10 11 10 9 9 8 7 5 4 4 4 5 5 5
21 20 18 17 8 11 13 10 10 13 12 11 20 20 23 20 21 21 20 17 7 8 13 21 23 24 26 24 24 24 13 11 13 15 18 24 17 14 13 12 14 16 15 14 12 11 6 6 7 9 10 12 14 13 16 19 20 19 19 17 12 14 13 11 10 10 10 10 10 9 8 8 9 10 10 10 9 8 8 7 5 4 4 4 4 4
19 14 10 17 13 12 15 13 14 7 13 11 15 17 20 23 21 13 21 7 12 19 24 26 28 27 25 24 23 18 12 15 15 16 21 22 14 11 8 10 12 11 10 10 7 5 3 6 8 9 12 16 17 15 18 17 18 21 20 18 18 21 21 17 15 14 12 9 9 7 7 7 8 7 8 9 8 7 7 6 5 5 5 5 4 4
13 10 14 23 13 21 23 14 8 8 5 6 17 18 21 21 18 20 24 2 14 20 23 25 27 23 20 21 17 16 16 18 18 18 18 13 13 13 11 8 8 7 9 8 7 5 6 8 10 13 15 8 11 15 16 20 20 18 16 15 17 24 20 18 15 15 12 11 10 9 9 7 7 9 8 7 8 7 6 5 6 6 6 5 4 3
10 12 10 14 19 16 16 19 17 14 14 15 13 19 17 12 14 21 16 20 24 23 20 17 18 18 19 20 18 18 18 19 18 13 13 15 17 18 17 11 7 6 3 1 2 7 6 7 7 6 5 6 11 13 16 19 21 19 15 14 14 11 13 13 12 11 11 12 11 11 10 9 8 7 7 7 7 7 6 5 5 5 5 5 4 4
11 11 13 14 11 15 11 13 9 13 7 21 25 21 17 17 18 16 20 18 20 18 16 14 14 15 16 18 19 20 19 18 18 16 15 15 14 15 16 15 9 11 11 8 6 7 9 8 10 10 11 11 13 14 17 19 21 18 18 16 11 12 13 11 11 12 12 12 11 11 11 10 11 9 7 7 7 8 7 6 5 5 5 5 4 5
11 14 7 11 12 12 15 15 10 7 13 16 18 15 14 24 20 21 18 19 15 13 11 11 12 13 14 16 17 17 16 16 16 16 15 14 13 14 14 13 9 8 8 9 9 10 9 10 10 10 9 10 12 14 19 21 20 21 19 12 11 11 13 12 11 12 12 11 11 11 11 11 11 10 8 9 9 9 8 7 6 6 5 5 5 5
3 7 10 9 4 8 5 5 7 11 11 3 11 17 17 16 13 16 18 18 15 12 12 12 14 15 15 15 15 15 16 15 16 15 14 13 12 12 12 11 8 10 10 11 9 7 8 12 11 8 8 7 10 11 19 19 20 23 19 15 15 15 15 14 14 13 12 11 11 10 11 10 9 9 9 9 9 8 8 8 7 6 6 5 5 4
13 9 2 5 5 10 12 7 8 9 12 15 16 15 15 14 15 12 10 12 13 14 12 10 13 15 17 15 14 14 16 18 19 17 15 14 14 13 12 8 5 3 0 2 3 5 6 4 6 9 11 8 7 12 18 17 19 25 20 14 12 12 14 17 19 17 12 12 11 12 12 13 11 10 10 10 8 7 7 8 8 6 6 6 5 4
6 5 5 5 8 9 7 8 17 16 19 19 19 19 18 7 5 5 7 8 8 12 14 13 13 13 14 13 12 12 14 15 16 17 17 16 16 15 14 12 8 5 6 7 6 7 6 7 8 11 13 14 11 14 18 18 16 17 18 14 12 13 15 15 15 14 12 12 11 12 12 11 10 10 10 8 7 6 6 6 6 6 6 6 5 5
10 12 19 5 16 11 11 15 22 24 25 20 15 10 6 8 8 8 8 7 9 10 12 14 13 14 13 14 14 13 15 17 16 16 16 16 15 16 15 14 12 7 3 3 5 9 8 11 14 14 15 14 14 14 18 15 17 17 16 11 14 17 15 17 14 14 12 11 10 9 10 9 12 11 8 7 7 7 6 5 6 6 6 7 6 6
15 15 11 11 19 18 24 21 14 19 20 20 8 4 10 7 10 11 11 13 14 15 16 16 12 13 14 16 15 14 15 17 16 15 17 16 15 15 15 14 10 7 6 8 9 13 15 15 15 16 17 17 11 16 18 17 15 17 19 19 19 21 17 13 12 12 13 10 10 9 8 8 9 8 8 8 6 5 6 6 6 6 4 3 4 5
12 16 18 16 14 16 12 16 18 17 15 15 12 11 12 13 13 15 17 18 18 17 15 16 17 16 15 15 16 14 15 16 18 17 15 17 17 17 14 13 10 8 9 11 10 13 14 14 17 17 17 14 13 17 17 17 17 16 12 19 23 24 25 21 13 12 11 10 10 9 8 8 8 7 8 8 7 6 3 2 6 5 6 6 9 7
13 14 12 11 10 15 13 14 12 15 17 13 16 20 23 21 20 20 18 19 20 20 20 21 22 21 21 21 18 19 18 20 21 19 19 17 18 17 17 14 14 10 10 9 10 13 14 16 16 14 14 14 16 19 19 18 20 22 19 19 19 23 27 19 12 10 9 10 8 9 9 9 8 7 7 7 7 6 6 5 5 9 10 9 8 6
Wind_Direction
168 215 228 231 237 238 231 223 234 250 271 286 292 280 273 275 274 271 273 154 193 254 245 248 253 258 262 265 267 268 271 272 270 267 264 261 263 262 257 249 242 223 211 174 184 180 181 180 180 179 178 178 178 181 178 176 174 173 165 165 170 172 171 169 169 173 174 177 178 177 182 179 174 176 170 175 184 177 179 155 172 172 187 174 184 222
192 233 238 242 248 263 283 292 253 256 261 267 271 274 275 267 269 265 283 144 180 218 267 262 268 262 262 266 265 266 264 262 265 266 262 265 267 266 258 254 243 240 150 157 173 175 172 172 171 172 175 173 176 182 180 179 176 173 169 171 169 172 175 180 177 174 183 185 185 178 179 177 165 166 173 181 178 178 156 161 178 185 179 184 195 215
213 226 244 246 262 59 17 283 271 266 267 260 250 261 270 263 265 274 205 140 140 207 265 271 275 273 270 267 264 259 254 249 251 255 263 271 275 271 266 259 251 186 164 166 182 172 172 169 169 171 173 179 183 179 181 179 173 174 173 174 172 174 175 180 178 176 184 181 180 183 173 173 153 157 161 152 140 149 163 175 180 186 182 188 200 209
236 238 249 257 205 255 241 200 246 253 246 247 236 234 242 257 284 279 135 158 192 221 287 301 288 276 271 256 249 247 247 247 240 251 261 264 264 262 262 266 247 189 172 175 184 182 175 171 172 173 173 175 181 177 180 179 179 175 179 177 176 174 175 178 179 179 175 161 127 101 120 107 129 156 141 151 164 177 181 193 189 193 190 191 201 200
227 246 65 117 217 223 250 210 217 229 242 222 233 245 254 257 249 253 315 304 261 232 259 293 275 267 247 250 237 234 235 240 248 249 263 263 256 257 270 263 242 211 179 179 187 184 178 177 183 183 177 169 181 180 181 182 179 178 180 178 175 171 175 177 170 171 154 131 128 118 106 115 109 113 168 184 194 189 188 191 189 193 183 187 193 205
249 243 127 110 200 215 227 238 219 226 253 246 219 227 243 256 272 281 316 356 317 294 147 347 315 273 246 240 247 155 124 210 238 232 241 255 259 251 253 247 220 202 185 187 190 185 180 182 179 180 177 178 181 186 186 180 178 168 175 177 173 171 174 175 167 164 151 155 160 161 165 175 187 188 186 195 192 182 185 194 181 169 166 178 202 214
250 99 174 230 216 208 230 247 250 191 244 247 247 260 256 261 273 284 293 333 282 273 90 339 345 293 137 244 225 200 183 195 174 218 242 236 252 255 243 220 185 186 189 202 193 174 176 181 179 181 182 181 185 187 172 173 175 171 176 178 175 173 173 171 166 165 161 165 176 180 185 189 188 192 189 185 168 164 163 160 164 175 181 193 206 215
191 183 187 223 226 228 232 248 231 203 233 245 68 297 80 257 258 263 271 242 266 292 285 154 233 280 285 201 216 226 233 191 213 235 241 237 226 233 262 225 170 180 187 190 188 180 182 180 182 185 183 182 186 178 170 173 178 174 176 175 173 171 171 163 164 167 170 172 179 179 186 189 188 189 171 160 161 167 162 161 174 196 207 200 203 216
183 184 192 194 201 213 232 237 87 192 211 279 46 25 58 37 263 159 235 263 273 303 277 197 185 270 261 202 195 202 225 223 232 236 247 253 249 239 224 249 167 179 188 180 177 184 184 184 185 180 180 181 178 176 174 175 178 173 177 171 170 166 166 161 165 167 173 177 176 175 176 180 184 178 177 159 164 168 172 181 187 202 217 221 223 221
37 37 199 195 172 226 186 48 346 190 223 126 136 81 84 92 90 224 265 268 280 274 262 199 169 249 280 160 175 183 215 218 221 231 238 246 250 248 245 210 162 177 181 182 184 183 183 181 180 179 169 172 180 177 171 171 170 172 175 172 173 168 167 162 165 167 172 174 172 175 180 180 180 177 179 184 178 181 181 188 195 203 209 213 212 211
94 153 17 228 219 251 86 55 32 18 55 122 140 138 117 178 208 191 236 260 291 253 248 203 184 195 278 189 157 156 196 194 211 217 232 245 243 248 219 170 166 172 176 174 179 180 177 173 169 165 170 172 172 171 170 170 171 175 175 175 176 176 169 164 168 168 170 173 175 176 179 180 180 177 180 180 188 183 183 197 199 205 213 210 212 211
190 150 222 224 53 100 114 87 51 26 67 182 147 227 236 231 200 246 215 179 249 267 235 177 191 189 241 138 169 201 186 191 172 210 259 275 270 273 175 161 165 173 175 170 170 167 161 157 163 167 172 172 172 167 174 175 175 179 176 177 177 179 177 170 169 172 170 173 176 177 177 179 183 175 175 187 185 187 190 195 204 205 213 219 216 215
223 214 196 104 238 177 160 196 89 115 174 215 198 188 232 256 219 240 167 222 211 249 94 164 183 220 230 239 253 213 184 197 174 248 266 263 265 264 135 134 153 156 163 163 167 165 169 170 172 177 178 171 177 180 180 178 177 177 178 179 180 185 181 174 172 174 174 173 177 178 178 181 181 183 180 184 186 190 189 194 201 208 216 220 228 223
244 86 174 183 94 215 177 204 174 211 189 188 197 191 207 257 244 261 252 242 262 240 129 124 69 246 275 274 232 245 229 213 221 230 243 247 251 255 151 156 147 167 186 178 175 175 178 178 178 181 181 180 180 179 180 180 180 182 184 184 186 186 182 174 173 175 174 178 176 177 177 179 177 180 180 181 182 186 192 192 198 203 214 222 231 241
268 253 200 150 226 160 192 212 209 248 162 201 198 179 209 218 248 274 261 257 253 283 136 197 134 234 101 272 187 215 226 215 208 233 235 238 243 238 125 120 162 174 197 193 186 184 183 184 180 180 184 182 182 180 180 180 184 179 182 185 188 185 184 175 173 173 176 175 175 175 178 176 173 175 176 181 182 185 187 191 193 204 209 219 226 238
227 251 134 160 31 148 189 210 87 105 140 188 196 218 251 234 222 245 256 290 309 326 290 175 217 272 256 26 137 126 185 199 201 226 229 233 235 219 170 190 194 188 185 194 202 197 191 186 181 180 185 184 180 181 180 184 185 186 188 187 188 186 179 175 172 175 174 172 172 174 175 175 173 170 172 177 181 182 184 190 193 202 208 217 227 242
65 256 115 121 87 173 163 28 188 185 226 156 162 203 208 28 225 257 276 280 97 286 259 191 256 249 261 264 197 162 168 178 182 221 219 230 229 231 224 225 206 195 186 185 200 199 191 185 188 188 187 184 179 180 185 187 188 188 181 184 185 185 178 176 173 174 172 170 169 173 172 172 171 170 175 179 178 176 179 185 196 202 209 215 224 235
245 266 122 172 219 112 11 334 27 17 356 114 217 211 66 346 31 245 264 257 248 254 273 278 266 280 275 292 140 166 185 187 205 224 224 226 230 239 236 235 226 209 203 188 185 196 202 196 192 191 196 192 187 183 184 186 187 186 185 183 182 183 178 177 174 173 173 171 169 170 173 172 171 172 177 176 172 173 175 183 192 202 207 212 217 221
135 281 182 295 32 91 64 162 222 165 297 267 220 352 181 204 204 210 240 246 260 257 271 270 272 265 260 254 162 193 189 202 216 223 220 223 228 233 237 241 241 222 199 192 200 198 193 197 197 197 195 195 191 183 184 182 180 185 185 184 186 185 178 172 172 171 173 169 168 169 170 170 170 172 172 171 167 170 181 187 195 202 206 208 210 217
150 240 239 353 128 105 157 193 224 176 197 192 310 249 20 325 234 193 198 244 234 261 269 275 283 274 253 238 239 206 183 199 214 212 208 217 220 222 229 238 242 227 215 216 208 201 197 198 200 196 189 190 191 183 180 180 181 185 184 181 186 180 172 170 172 173 173 171 162 162 163 170 169 168 168 168 167 178 182 190 195 203 208 211 211 221
244 147 258 86 302 175 222 191 213 172 178 185 220 230 185 206 16 345 288 229 220 238 246 272 279 274 294 218 221 176 186 208 218 215 197 207 218 214 219 230 233 233 229 219 214 211 197 193 194 192 187 188 189 182 175 179 183 182 180 183 184 180 174 174 174 171 174 165 165 162 167 168 167 165 165 165 172 177 182 187 194 201 206 206 216 214
206 176 236 159 168 213 236 172 196 198 189 185 182 202 196 174 199 215 245 209 234 226 233 246 255 268 276 113 144 148 216 225 249 256 259 212 208 207 219 223 224 241 237 227 222 213 200 172 180 183 179 185 183 184 181 178 175 179 183 183 183 179 178 174 175 174 170 166 164 167 166 166 163 164 163 167 171 177 179 186 190 191 196 210 213 215
191 189 216 220 216 235 227 239 313 343 346 244 201 214 193 196 184 199 236 206 132 236 257 247 265 258 252 79 113 160 194 289 290 251 243 231 192 212 224 228 228 223 230 234 223 203 185 173 178 185 189 190 189 184 179 177 179 183 182 180 185 182 183 177 174 166 164 163 165 166 164 161 162 162 166 167 171 178 180 182 185 185 195 203 207 212
55 176 224 251 291 314 281 67 318 16 246 287 251 238 204 214 204 221 233 233 238 184 216 229 237 259 272 102 282 303 294 269 265 256 260 256 239 231 239 227 226 229 232 232 200 167 149 153 173 189 191 192 190 189 185 180 180 182 183 185 184 187 181 174 169 165 162 164 165 164 162 163 163 163 166 168 173 176 179 177 180 184 193 199 203 211
193 179 216 243 248 286 276 251 209 171 195 223 225 214 224 227 219 229 26 77 251 231 244 243 252 253 258 109 211 259 257 243 237 241 250 263 256 242 227 217 218 217 214 216 210 188 168 178 182 193 196 195 193 190 185 183 182 182 185 183 188 186 180 171 164 163 164 163 162 165 163 163 161 164 167 168 171 174 174 175 176 181 190 192 203 209
222 170 184 224 222 229 227 231 237 197 201 218 234 230 212 214 214 209 233 212 246 243 241 245 261 255 270 290 289 283 279 248 246 249 272 245 244 235 209 212 208 207 218 219 214 181 194 199 188 187 196 200 200 190 188 185 183 184 184 188 184 181 176 169 162 163 163 164 162 164 164 162 162 165 167 166 168 169 171 170 176 180 182 191 203 208
237 184 216 227 232 232 230 245 269 94 154 191 210 213 203 210 216 222 227 233 230 241 240 242 250 268 276 279 283 285 285 289 290 287 277 251 234 221 217 212 210 214 216 218 213 208 190 170 199 205 204 203 196 194 192 185 183 184 184 184 183 181 171 165 161 163 163 163 162 161 164 162 162 160 162 164 162 162 165 169 173 177 179 183 192 206
36 234 223 232 235 237 239 242 249 246 219 194 194 207 208 207 207 213 217 236 236 266 252 244 254 258 258 268 274 277 280 283 280 279 280 274 227 213 218 217 226 231 233 226 218 196 195 207 206 200 199 194 196 192 192 192 186 185 183 183 180 177 167 161 162 164 164 161 162 161 160 157 155 157 157 155 154 157 160 161 163 169 168 175 192 206
220 241 238 243 245 245 249 258 259 257 252 235 198 195 203 204 208 213 225 232 219 236 254 251 254 260 261 257 263 267 276 278 276 277 283 286 285 275 176 209 221 230 234 228 225 214 201 202 203 200 197 198 188 187 191 188 186 185 185 182 178 173 169 158 160 162 160 161 161 160 154 149 151 147 145 148 151 152 157 157 158 161 167 177 190 206
278 242 248 247 262 259 260 257 258 263 267 266 253 243 239 226 227 230 240 219 217 243 247 254 258 259 260 259 264 269 271 272 274 280 282 281 280 268 211 249 268 271 263 249 239 230 221 220 216 203 197 185 185 190 186 186 186 186 183 181 176 170 163 154 163 160 159 161 158 150 149 145 141 144 142 147 152 154 156 157 157 161 170 181 196 206
189 239 232 252 259 253 250 252 256 255 260 270 273 274 283 281 264 250 254 235 235 241 244 242 247 257 261 260 260 261 263 268 278 273 272 282 284 277 277 284 284 281 277 266 253 243 235 229 226 220 208 186 186 191 186 184 182 179 179 178 174 167 161 157 160 158 157 157 151 144 141 139 142 143 148 151 151 151 153 154 155 160 171 182 197 209
196 250 224 236 240 248 238 243 242 247 257 267 276 281 268 254 255 263 258 243 235 242 248 253 254 252 253 257 257 259 266 268 266 267 273 276 277 277 288 279 271 271 270 270 267 259 248 235 229 226 221 212 199 180 177 175 177 175 181 175 170 162 154 155 155 153 153 148 140 140 140 141 141 143 147 146 149 149 148 149 151 159 171 184 198 209
186 198 213 217 237 239 238 242 246 255 272 270 258 246 243 247 250 255 256 256 252 251 254 246 234 229 240 250 266 269 264 263 262 261 269 268 266 273 278 271 263 263 269 274 268 265 260 246 230 227 226 220 207 193 184 169 164 179 177 170 165 143 151 153 148 145 143 138 138 141 141 140 141 142 144 148 148 145 145 150 156 165 178 193 198 204
186 214 228 212 242 242 238 247 249 249 233 226 232 233 234 244 245 243 246 248 249 242 241 243 256 262 259 254 252 256 262 261 261 261 250 260 270 278 270 267 267 272 276 275 272 269 267 259 242 225 223 218 207 192 151 166 162 159 154 146 135 139 144 137 142 138 142 137 141 141 139 137 137 141 142 142 141 145 150 156 166 172 181 185 196 214
211 219 236 213 243 233 236 248 244 226 232 232 247 240 231 234 239 240 244 248 254 255 253 254 254 254 255 256 255 255 257 260 267 276 274 266 264 262 266 269 273 275 276 277 277 272 265 263 257 229 218 214 191 146 137 152 147 144 140 138 136 139 136 137 136 136 140 138 137 133 135 137 139 139 141 142 144 148 153 158 164 173 184 189 203 214
224 221 225 223 230 253 227 206 236 239 231 284 211 221 224 235 240 253 258 249 247 247 248 248 249 250 253 256 256 256 259 261 270 274 268 268 267 263 256 259 263 268 272 271 271 273 273 269 243 208 208 175 140 145 149 156 145 134 135 125 133 132 131 127 129 132 131 132 133 137 141 140 142 138 140 143 145 148 154 162 169 176 184 195 210 215
219 229 213 248 201 236 208 214 232 260 320 136 184 219 214 215 217 219 240 240 231 234 236 246 249 253 253 251 253 258 262 267 281 272 266 263 257 253 252 255 260 263 264 266 265 264 269 267 208 193 154 147 149 144 155 146 132 122 125 133 131 128 135 140 140 145 140 138 140 146 148 147 140 140 142 145 145 151 158 161 170 175 182 198 214 217
210 218 197 231 217 211 230 235 234 224 237 190 208 223 220 218 221 231 236 253 209 233 236 244 245 245 249 251 254 256 258 276 262 262 262 263 256 251 253 251 254 255 257 261 263 262 223 163 133 144 157 151 154 156 146 134 137 134 139 147 145 145 151 152 160 154 151 150 147 144 143 145 142 141 143 147 150 151 152 151 159 171 191 199 216 221
216 218 225 225 234 211 227 232 221 227 229 177 221 218 230 232 231 243 253 252 141 196 218 239 242 241 245 248 251 255 262 249 245 250 259 263 265 253 248 250 248 247 249 249 251 253 207 182 165 158 151 154 164 164 148 153 155 157 156 147 154 153 154 165 156 153 148 140 134 134 133 132 137 140 144 144 147 147 148 153 160 166 180 215 227 232
213 211 206 231 228 227 243 237 239 206 248 199 216 223 230 237 240 242 251 242 149 205 222 232 239 244 246 247 252 255 249 253 245 249 249 255 261 270 267 251 247 248 247 245 238 230 168 134 128 147 164 183 184 156 161 152 154 163 156 155 143 157 167 161 139 114 102 109 111 108 110 121 126 126 129 135 130 134 137 142 152 165 185 209 218 227
216 218 211 226 221 227 225 245 254 245 222 165 216 216 223 230 232 236 240 214 215 214 221 228 237 241 249 258 259 262 244 245 249 251 264 280 279 273 254 233 244 244 247 237 223 148 159 170 176 187 192 161 138 151 156 161 158 165 159 150 156 180 149 128 127 128 127 124 122 124 123 123 128 128 126 129 130 133 141 154 162 169 186 201 220 221
212 202 214 207 221 222 225 234 235 242 219 217 224 223 224 230 230 235 237 233 242 239 239 235 245 248 253 256 260 258 262 259 260 259 259 259 260 261 268 260 215 231 239 358 135 164 170 164 168 162 135 130 149 147 160 162 171 170 153 160 179 151 123 129 127 120 121 126 126 126 125 127 123 119 123 127 134 137 146 159 159 170 180 201 199 206
175 200 205 202 218 230 230 240 246 240 119 193 228 230 213 230 236 239 249 242 245 251 251 252 251 255 252 259 256 260 263 262 261 259 252 249 252 259 262 263 234 224 218 198 197 189 172 176 183 184 176 151 156 156 164 168 173 169 154 170 149 130 138 130 127 128 128 127 130 132 133 133 135 136 135 139 144 146 154 155 157 181 192 201 195 208
174 231 212 211 181 214 214 212 229 239 237 206 208 231 201 223 235 238 243 255 252 255 253 257 257 261 264 265 270 270 265 264 261 259 261 256 252 252 256 260 247 226 220 210 202 187 182 190 184 183 158 139 155 164 163 169 172 165 169 158 134 132 119 127 127 130 128 132 135 136 138 138 138 136 140 147 152 155 159 164 165 181 190 191 198 201
87 311 346 312 300 263 292 327 334 351 350 323 246 256 270 275 282 287 287 288 288 288 303 304 313 313 313 314 307 303 294 286 280 278 277 274 271 266 266 270 249 224 217 202 192 176 184 193 185 167 154 165 160 156 171 173 170 171 168 139 140 145 143 139 135 134 134 134 136 131 132 134 134 140 144 150 155 156 162 165 168 180 187 187 202 197
316 310 315 297 289 315 306 270 355 359 350 340 330 333 324 337 340 356 355 349 343 346 354 339 337 329 333 341 344 334 325 326 325 323 317 312 308 309 308 311 300 284 17 155 180 176 189 166 160 167 167 162 174 159 177 180 171 175 160 136 139 143 137 136 133 133 133 132 134 137 140 140 143 147 151 156 161 165 162 160 174 179 173 184 187 191
302 321 338 290 299 317 279 354 346 334 325 314 308 305 307 319 306 326 344 342 325 330 330 329 326 323 321 330 330 325 319 321 319 317 316 316 317 314 313 306 293 256 216 218 188 144 165 166 173 184 182 180 172 175 183 183 183 165 127 149 141 142 139 135 135 131 134 137 134 142 144 139 145 150 156 159 159 166 160 162 177 173 172 181 180 185
286 7 321 324 314 291 292 304 303 303 294 291 285 295 331 329 321 330 325 316 315 312 309 312 318 314 322 314 316 315 311 307 305 305 303 303 303 300 296 294 290 276 222 176 163 174 176 186 192 191 184 189 174 165 182 181 174 156 133 136 145 140 141 140 142 139 138 131 132 143 147 141 139 138 143 159 162 160 160 170 177 173 180 179 180 178
297 329 268 327 293 295 297 287 291 291 292 292 301 17 309 316 317 306 307 310 310 307 306 305 303 300 305 299 298 295 296 293 288 287 286 287 282 279 281 281 272 245 205 191 190 183 195 198 197 195 192 187 138 164 178 176 167 150 147 144 143 151 147 142 126 120 127 132 133 138 143 134 144 147 144 150 156 161 163 168 174 175 159 164 172 176
266 262 279 290 284 281 269 300 322 306 304 303 304 318 315 312 305 306 313 312 310 307 306 303 301 300 293 285 285 286 281 279 279 279 276 277 279 279 279 277 267 237 221 213 198 199 206 202 198 196 194 179 158 169 178 176 159 151 149 146 152 154 144 133 134 128 135 139 139 140 134 134 141 138 140 146 152 144 126 179 187 171 168 178 190 175
255 258 260 258 260 271 284 280 278 292 299 298 311 315 311 308 306 305 306 303 303 300 298 295 294 290 287 283 279 278 277 276 277 278 277 275 273 271 271 273 271 254 231 209 199 209 208 207 202 193 184 180 172 178 180 173 156 155 155 159 162 162 147 136 135 133 135 139 136 143 136 138 134 143 143 146 144 146 145 154 190 198 182 174 166 150